[[{"header":{"parameterUnit":"m.s-1","parameterCategory":1,"la1":30.2992,"la2":30.254,"lo1":-89.0895,"lo2":-89.0443,"dy":0.0025,"dx":0.0025,"nx":19,"ny":19,"refTime":"2026-04-09T09:00:00:Z","depth":0,"parameterNumber":2,"parameterNumberName":"U-component_of_WINDS"},"data":[0,0,0,-6.9156,-6.9156,-6.9151,-6.9151,-6.9197,-6.9197,0,0,0,0,0,0,0,0,0,0,0,-6.9186,-6.9187,-6.9155,-6.9156,-6.9151,-6.9151,-6.9196,-6.9197,0,0,0,0,0,0,0,0,0,0,0,-6.9185,-6.9187,-6.9189,-6.9156,-6.9151,-6.9151,-6.9196,-6.9182,0,0,0,0,0,0,0,0,0,0,-6.9178,-6.9234,-6.9187,-6.9189,-6.9156,-6.9151,-6.9151,-6.9181,-6.9183,-6.922,0,-6.9259,0,-6.9229,-6.9204,-6.9204,0,0,0,-6.9135,-6.9232,-6.9204,-6.9189,-6.9157,-6.9151,-6.9147,-6.9181,-6.9184,-6.9224,-6.9259,-6.926,-6.923,-6.9204,-6.9205,-6.9489,-6.9491,0,0,-6.9135,-6.9201,-6.9203,-6.9208,-6.9209,-6.9148,-6.9148,-6.9182,-6.9226,-6.926,-6.926,-6.9231,-6.9205,-6.9206,-6.9486,-6.9489,0,0,0,-6.915,-6.9202,-6.9172,-6.9207,-6.9202,-6.9148,-6.9148,-6.9224,-6.9209,-6.926,-6.9232,-6.9205,-6.9207,-6.9484,-6.9487,-6.9666,0,0,0,-6.9149,-6.9211,-6.9174,-6.9214,-6.9203,-6.9213,-6.919,-6.9207,-6.9208,-6.9231,-6.9205,-6.9207,-6.9481,-6.9486,-6.9655,-6.9739,0,0,0,-6.9177,-6.9213,-6.9223,-6.9218,-6.9218,-6.921,-6.9197,-6.9205,-6.9192,-6.9204,-6.9208,-6.9479,-6.9485,-6.9646,-6.9724,-6.9834,0,0,0,-6.9225,-6.9381,-6.9227,-6.9391,-6.9218,-6.9321,-6.9195,-6.9269,-6.93,-6.9206,-6.9481,-6.9487,-6.9643,-6.9714,-6.9825,-6.9939,-6.9993,0,0,-6.9459,-6.9412,-6.9503,-6.9365,-6.9511,-6.9316,-6.949,-6.9456,-6.9398,-6.9463,-6.9468,-6.9659,-6.9723,-6.9832,-7.0271,-7.0314,0,0,0,-6.96,-6.9666,-6.9691,-6.9723,-6.9702,-6.9691,-6.9624,-6.9613,-6.9664,-6.9444,-6.9726,-6.9762,-6.9824,-6.9876,-6.9913,-6.9962,-6.9514,-6.9513,-6.9512,-7.0025,-6.9942,-7.0088,-7.0006,-7.004,-6.9971,-6.9992,-6.9964,-6.987,-6.9939,-6.9957,-7.0233,-7.0297,-7.0324,-7.0376,-7.0011,-7.0012,-7.0012,-7.0013,-7.0361,-7.0442,-7.0316,-7.0412,-7.0326,-7.0407,-7.0348,-7.028,-7.0344,-7.0212,-7.0262,-7.0125,-7.0374,-7.0415,-7.0025,-7.0023,-7.0021,-7.002,-7.0019,-7.063,-7.0654,-7.0638,-7.0679,-7.072,-7.0632,-7.0701,-7.0619,-7.0542,-7.0592,-7.0604,-7.0601,-7.0588,-7.0604,-7.0605,-7.0606,-7.0606,-7.0607,-7.0608,-7.0915,-7.0891,-7.0957,-7.0951,-7.0962,-7.0968,-7.0903,-7.0913,-7.0904,-7.0839,-7.0839,-7.0741,-7.0413,-7.0333,-7.0622,-7.062,-7.0618,-7.0616,-7.0615,-7.1286,-7.119,-7.1293,-7.1306,-7.1292,-7.1341,-7.1236,-7.1265,-7.1262,-7.13,-7.1191,-7.0962,-7.0908,-7.0878,-7.0811,-7.1207,-7.1207,-7.1207,-7.1207,-7.1514,-7.1479,-7.1567,-7.1593,-7.1609,-7.1526,-7.1649,-7.1603,-7.1539,-7.1533,-7.1464,-7.1369,-7.1342,-7.1304,-7.1265,-7.1201,-7.1687,-7.1687,-7.1688,-7.1738,-7.1701,-7.182,-7.1756,-7.1741,-7.1731,-7.1845,-7.1882,-7.179,-7.1706,-7.1527,-7.1507,-7.1351,-7.1305,-7.1215,-7.1157,-7.1038,0,0]},{"header":{"parameterUnit":"m.s-1","parameterCategory":1,"la1":30.2992,"la2":30.254,"lo1":-89.0895,"lo2":-89.0443,"dy":0.0025,"dx":0.0025,"nx":19,"ny":19,"refTime":"2026-04-09T09:00:00:Z","depth":0,"parameterNumber":3,"parameterNumberName":"V-component_of_WINDS"},"data":[0,0,0,-0.3868,-0.387,-0.3996,-0.3997,-0.4156,-0.4157,0,0,0,0,0,0,0,0,0,0,0,-0.3827,-0.3828,-0.3867,-0.387,-0.3996,-0.3997,-0.4156,-0.4157,0,0,0,0,0,0,0,0,0,0,0,-0.3827,-0.3828,-0.3829,-0.3871,-0.3996,-0.3997,-0.4155,-0.4062,0,0,0,0,0,0,0,0,0,0,-0.394,-0.3899,-0.3827,-0.3829,-0.3871,-0.3996,-0.3997,-0.4057,-0.4067,-0.4097,0,-0.4121,0,-0.4142,-0.4168,-0.4168,0,0,0,-0.3874,-0.389,-0.3927,-0.3829,-0.3873,-0.3996,-0.394,-0.4063,-0.4075,-0.4111,-0.4124,-0.413,-0.4144,-0.4169,-0.417,-0.4326,-0.4326,0,0,-0.3867,-0.3849,-0.3918,-0.3934,-0.3912,-0.3936,-0.3944,-0.407,-0.4084,-0.4124,-0.4133,-0.4147,-0.417,-0.4171,-0.4325,-0.4326,0,0,0,-0.3844,-0.3844,-0.3877,-0.3927,-0.395,-0.394,-0.3949,-0.4078,-0.409,-0.4135,-0.4149,-0.4171,-0.4173,-0.4325,-0.4325,-0.4337,0,0,0,-0.384,-0.3831,-0.3874,-0.3864,-0.3947,-0.4015,-0.3954,-0.4081,-0.4096,-0.4148,-0.4171,-0.4174,-0.4324,-0.4325,-0.4335,-0.4346,0,0,0,-0.382,-0.3829,-0.3845,-0.3863,-0.3916,-0.4014,-0.4033,-0.4085,-0.4104,-0.4168,-0.4174,-0.4324,-0.4325,-0.4334,-0.4344,-0.4382,0,0,0,-0.3794,-0.3855,-0.3845,-0.3919,-0.3915,-0.4018,-0.4032,-0.4111,-0.4167,-0.4171,-0.4324,-0.4325,-0.4333,-0.4342,-0.4381,-0.4413,-0.4424,0,0,-0.3862,-0.3863,-0.3907,-0.3902,-0.4002,-0.4,-0.4103,-0.4173,-0.4196,-0.4282,-0.4286,-0.4336,-0.4344,-0.4382,-0.4489,-0.4498,0,0,0,-0.3923,-0.3955,-0.3985,-0.4036,-0.4088,-0.4135,-0.419,-0.4215,-0.4288,-0.4235,-0.436,-0.4365,-0.4388,-0.4405,-0.4412,-0.4434,-0.4331,-0.4331,-0.4331,-0.3996,-0.4019,-0.4095,-0.4134,-0.4183,-0.4237,-0.428,-0.4324,-0.4336,-0.4365,-0.4391,-0.4453,-0.4471,-0.4477,-0.4499,-0.4408,-0.4408,-0.4408,-0.4408,-0.4098,-0.4148,-0.4158,-0.4236,-0.4261,-0.4327,-0.4381,-0.4387,-0.4453,-0.4435,-0.4457,-0.4437,-0.4485,-0.4506,-0.441,-0.4409,-0.4409,-0.4409,-0.4409,-0.4151,-0.4179,-0.4206,-0.4281,-0.4336,-0.4373,-0.4435,-0.4456,-0.4477,-0.4498,-0.4529,-0.4529,-0.4533,-0.451,-0.451,-0.4511,-0.4511,-0.4511,-0.4511,-0.4195,-0.4225,-0.4274,-0.4332,-0.4367,-0.4415,-0.4468,-0.4504,-0.4549,-0.4559,-0.456,-0.4569,-0.4484,-0.4464,-0.4515,-0.4514,-0.4514,-0.4513,-0.4513,-0.4294,-0.4274,-0.4349,-0.4384,-0.4453,-0.4507,-0.4531,-0.4601,-0.4633,-0.4663,-0.4667,-0.4599,-0.4604,-0.4598,-0.4581,-0.466,-0.466,-0.466,-0.466,-0.434,-0.4342,-0.4423,-0.4476,-0.4531,-0.4559,-0.4645,-0.4686,-0.4727,-0.4748,-0.4739,-0.4718,-0.4711,-0.4719,-0.4711,-0.4696,-0.4802,-0.4802,-0.4802,-0.4403,-0.4411,-0.448,-0.4515,-0.4571,-0.4618,-0.4699,-0.4762,-0.4803,-0.4808,-0.4766,-0.476,-0.4726,-0.4713,-0.472,-0.4707,-0.468,0,0]}]]